Location: Charleville
(26.4021°S, 146.2454°E)
Time: 03:05:26
(UTC+10:00)

N. Korean satellite - Pass Details

Date: 07 December 2021
Orbit: 446 x 491 km, 97.3° (Epoch: 19 January)

Event Time Altitude Azimuth Distance (km) Brightness Sun altitude
Rises 04:14:08 0° 38° (NE) 2,469 10.2 -12.6°
Reaches altitude 10° 04:16:26 10° 53° (NE) 1,612 9.5 -12.2°
Maximum altitude 04:19:12 23° 106° (ESE) 1,059 9.3 -11.6°
Drops below altitude 10° 04:22:01 10° 159° (SSE) 1,654 10.1 -11.1°
Sets 04:24:24 0° 174° (S) 2,551 10.8 -10.7°
